KMNV Weather Reports


time (UTC)temp
F
wind
direction
speed
knots
gust
knots
rain 1hr
in
rain 24hr
in
rain mn
in
humidity
%
barometer
mb
20190527032528 73 240 2.6 0.0 0.00 0.00 0.00 7
20190527030527 75 0 0.0 0.0 0.00 0.00 0.00 6
20190527024525 73 0 0.0 0.0 0.00 0.00 0.00 7
20190527022525 75 0 0.0 0.0 0.00 0.00 0.00 6
20190527020547 75 0 0.0 0.0 0.00 0.00 0.00 6
20190527014533 79 0 0.0 0.0 0.00 0.00 0.00 6
20190527012525 81 0 0.0 0.0 0.00 0.00 0.00 5
20190527010538 81 0 0.0 0.0 0.00 0.00 0.00 5
20190527004533 82 240 4.3 0.0 0.00 0.00 0.00 5
20190527002534 82 250 4.3 0.0 0.00 0.00 0.00 5
20190527000521 84 230 5.2 0.0 0.00 0.00 0.00 4
20190526234527 86 240 7.0 0.0 0.00 0.00 0.00 4
20190526232532 88 240 7.8 0.0 0.00 0.00 0.00 4
20190526230518 90 250 8.7 0.0 0.00 0.00 0.00 3
20190526224526 90 250 8.7 0.0 0.00 0.00 0.00 3
20190526222534 90 240 12.2 0.0 0.00 0.00 0.00 3
20190526220530 90 220 8.7 18.2 0.00 0.00 0.00 3
20190526214528 90 240 7.8 13.9 0.00 0.00 0.00 3
20190526212523 90 220 8.7 15.6 0.00 0.00 0.00 3
20190526210523 90 240 7.8 15.6 0.00 0.00 0.00 3
20190526204534 90 250 10.4 14.8 0.00 0.00 0.00 3
20190526202529 90 250 11.3 18.2 0.00 0.00 0.00 4
20190526200541 90 240 8.7 15.6 0.00 0.00 0.00 4
20190526194526 90 230 7.8 15.6 0.00 0.00 0.00 4
20190526192534 90 220 7.0 13.0 0.00 0.00 0.00 4
20190526190531 90 200 8.7 14.8 0.00 0.00 0.00 4
20190526184522 90 240 8.7 14.8 0.00 0.00 0.00 4
20190526182536 90 230 7.0 13.0 0.00 0.00 0.00 4
20190526180541 90 200 8.7 0.0 0.00 0.00 0.00 4
20190526174529 88 220 7.0 14.8 0.00 0.00 0.00 4
20190526172538 88 260 12.2 0.0 0.00 0.00 0.00 4
20190526170529 88 270 6.1 0.0 0.00 0.00 0.00 4
20190526160532 86 210 8.7 0.0 0.00 0.00 0.00 5
20190526154531 86 270 7.8 0.0 0.00 0.00 0.00 5
20190526152524 84 240 7.0 0.0 0.00 0.00 0.00 6
20190526150535 84 180 5.2 0.0 0.00 0.00 0.00 6
20190526144537 82 220 7.0 0.0 0.00 0.00 0.00 6
20190526142528 82 210 5.2 0.0 0.00 0.00 0.00 6
20190526140528 81 210 7.0 0.0 0.00 0.00 0.00 7
20190526134525 81 210 6.1 0.0 0.00 0.00 0.00 7
20190526132519 79 190 5.2 0.0 0.00 0.00 0.00 7
20190526130529 77 180 2.6 0.0 0.00 0.00 0.00 7
20190526124529 75 0 0.0 0.0 0.00 0.00 0.00 8
20190526122542 72 0 0.0 0.0 0.00 0.00 0.00 9
20190526120529 70 0 0.0 0.0 0.00 0.00 0.00 9
20190526112524 66 0 0.0 0.0 0.00 0.00 0.00 10
20190526110525 66 0 0.0 0.0 0.00 0.00 0.00 10
20190526104539 66 0 0.0 0.0 0.00 0.00 0.00 10
20190526102523 66 0 0.0 0.0 0.00 0.00 0.00 10
20190526100522 66 0 0.0 0.0 0.00 0.00 0.00 10
20190526094553 66 0 0.0 0.0 0.00 0.00 0.00 10
20190526092534 66 0 0.0 0.0 0.00 0.00 0.00 10
20190526090543 66 0 0.0 0.0 0.00 0.00 0.00 10
20190526084533 66 0 0.0 0.0 0.00 0.00 0.00 10
20190526082529 68 0 0.0 0.0 0.00 0.00 0.00 9
20190526080536 68 0 0.0 0.0 0.00 0.00 0.00 9
20190526074524 66 0 0.0 0.0 0.00 0.00 0.00 10
20190526072527 68 0 0.0 0.0 0.00 0.00 0.00 9
20190526070529 68 0 0.0 0.0 0.00 0.00 0.00 9
20190526064525 68 0 0.0 0.0 0.00 0.00 0.00 10
20190526062529 68 0 0.0 0.0 0.00 0.00 0.00 9
20190526060533 68 0 0.0 0.0 0.00 0.00 0.00 10
20190526054522 68 0 0.0 0.0 0.00 0.00 0.00 10
20190526052541 70 250 2.6 0.0 0.00 0.00 0.00 8
20190526050530 70 0 0.0 0.0 0.00 0.00 0.00 9
20190526044522 72 0 0.0 0.0 0.00 0.00 0.00 8
20190526042529 72 0 0.0 0.0 0.00 0.00 0.00 8
20190526040540 72 0 0.0 0.0 0.00 0.00 0.00 8
20190526034539 72 0 0.0 0.0 0.00 0.00 0.00 8